| time (UTC) | temp F | wind direction | speed knots | gust knots | rain 1hr in | rain 24hr in | rain mn in | humidity % | barometer mb |
| 20260503224517 | 58 | 225 | 10.4 | 18.2 | 0.00 | 0.00 | 0.00 | 43 | 1010.0 |
| 20260503223517 | 58 | 225 | 9.6 | 14.8 | 0.00 | 0.00 | 0.00 | 42 | 1010.0 |
| 20260503222517 | 58 | 225 | 10.4 | 16.5 | 0.00 | 0.00 | 0.00 | 44 | 1010.2 |
| 20260503221517 | 58 | 225 | 8.7 | 16.5 | 0.00 | 0.00 | 0.00 | 43 | 1010.3 |
| 20260503220517 | 59 | 225 | 10.4 | 18.2 | 0.00 | 0.00 | 0.00 | 42 | 1010.4 |
| 20260503215538 | 59 | 225 | 9.6 | 15.6 | 0.00 | 0.00 | 0.00 | 43 | 1010.3 |
| 20260503214517 | 59 | 225 | 11.3 | 17.4 | 0.00 | 0.00 | 0.00 | 43 | 1010.3 |
| 20260503213518 | 59 | 225 | 11.3 | 17.4 | 0.00 | 0.00 | 0.00 | 44 | 1010.4 |
| 20260503212517 | 58 | 225 | 11.3 | 19.1 | 0.00 | 0.00 | 0.00 | 43 | 1010.5 |
| 20260503211537 | 59 | 225 | 12.2 | 21.7 | 0.00 | 0.00 | 0.00 | 43 | 1010.5 |
| 20260503210517 | 59 | 248 | 9.6 | 13.9 | 0.00 | 0.00 | 0.00 | 44 | 1010.5 |
| 20260503205517 | 59 | 225 | 12.2 | 18.2 | 0.00 | 0.00 | 0.00 | 41 | 1010.5 |
| 20260503204517 | 60 | 248 | 10.4 | 18.2 | 0.00 | 0.00 | 0.00 | 44 | 1010.6 |
| 20260503203537 | 60 | 248 | 12.2 | 19.1 | 0.00 | 0.00 | 0.00 | 42 | 1010.6 |
| 20260503202517 | 59 | 248 | 11.3 | 16.5 | 0.00 | 0.00 | 0.00 | 43 | 1010.7 |
| 20260503201517 | 59 | 225 | 10.4 | 18.2 | 0.00 | 0.00 | 0.00 | 44 | 1010.7 |
| 20260503200517 | 59 | 225 | 9.6 | 16.5 | 0.00 | 0.00 | 0.00 | 43 | 1010.9 |
| 20260503195537 | 59 | 225 | 9.6 | 15.6 | 0.00 | 0.00 | 0.00 | 40 | 1011.0 |
| 20260503194517 | 59 | 248 | 10.4 | 15.6 | 0.00 | 0.00 | 0.00 | 45 | 1011.2 |
| 20260503193517 | 59 | 225 | 8.7 | 15.6 | 0.00 | 0.00 | 0.00 | 43 | 1011.5 |
| 20260503192517 | 59 | 225 | 7.8 | 12.2 | 0.00 | 0.00 | 0.00 | 43 | 1011.6 |
| 20260503191517 | 58 | 225 | 7.8 | 13.0 | 0.00 | 0.00 | 0.00 | 46 | 1011.8 |
| 20260503190517 | 58 | 225 | 11.3 | 18.2 | 0.00 | 0.00 | 0.00 | 43 | 1011.9 |
| 20260503185517 | 58 | 225 | 11.3 | 17.4 | 0.00 | 0.00 | 0.00 | 44 | 1012.1 |
| 20260503184517 | 59 | 225 | 10.4 | 15.6 | 0.00 | 0.00 | 0.00 | 46 | 1012.2 |
| 20260503183517 | 59 | 225 | 11.3 | 18.2 | 0.00 | 0.00 | 0.00 | 42 | 1012.3 |
| 20260503182537 | 59 | 225 | 12.2 | 17.4 | 0.00 | 0.00 | 0.00 | 42 | 1012.6 |
| 20260503182038 | 58 | 248 | 11.3 | 19.1 | 0.00 | 0.00 | 0.00 | 44 | 1012.7 |
| 20260503181017 | 59 | 225 | 11.3 | 19.1 | 0.00 | 0.00 | 0.00 | 47 | 1012.8 |
| 20260503180017 | 58 | 225 | 10.4 | 17.4 | 0.00 | 0.00 | 0.00 | 45 | 1012.8 |
| 20260503175037 | 58 | 225 | 11.3 | 19.1 | 0.00 | 0.00 | 0.00 | 44 | 1012.9 |
| 20260503174037 | 57 | 225 | 11.3 | 17.4 | 0.00 | 0.00 | 0.00 | 45 | 1013.0 |
| 20260503173017 | 58 | 225 | 10.4 | 17.4 | 0.00 | 0.00 | 0.00 | 49 | 1013.2 |
| 20260503172018 | 57 | 248 | 9.6 | 13.9 | 0.00 | 0.00 | 0.00 | 51 | 1013.2 |
| 20260503171037 | 57 | 225 | 10.4 | 16.5 | 0.00 | 0.00 | 0.00 | 50 | 1013.5 |
| 20260503130636 | 45 | 225 | 6.1 | 9.6 | 0.00 | 0.00 | 0.00 | 55 | 1014.9 |
| 20260503110515 | 36 | 203 | 2.6 | 4.3 | 0.00 | 0.00 | 0.00 | 80 | 1014.1 |
| 20260503081016 | 35 | 225 | 2.6 | 3.5 | 0.00 | 0.00 | 0.00 | 83 | 1013.8 |
| 20260503072016 | 35 | 225 | 3.5 | 6.1 | 0.00 | 0.00 | 0.00 | 85 | |
| 20260503071016 | 35 | 225 | 2.6 | 4.3 | 0.00 | 0.00 | 0.00 | 86 | |
| 20260503054516 | 37 | 248 | 1.7 | 2.6 | 0.00 | 0.00 | 0.00 | 83 | 1014.1 |
| 20260503053556 | 38 | 225 | 1.7 | 4.3 | 0.00 | 0.00 | 0.00 | 82 | 1014.1 |
| 20260503052516 | 38 | 225 | 2.6 | 3.5 | 0.00 | 0.00 | 0.00 | 82 | 1014.1 |
| 20260503051515 | 38 | 225 | 2.6 | 3.5 | 0.00 | 0.00 | 0.00 | 81 | 1014.1 |
| 20260503050516 | 39 | 225 | 2.6 | 4.3 | 0.00 | 0.00 | 0.00 | 80 | 1014.1 |
| 20260503045516 | 39 | 225 | 2.6 | 3.5 | 0.00 | 0.00 | 0.00 | 80 | 1014.1 |
| 20260503044516 | 40 | 225 | 3.5 | 5.2 | 0.00 | 0.00 | 0.00 | 80 | 1014.2 |
| 20260503043556 | 40 | 225 | 2.6 | 4.3 | 0.00 | 0.00 | 0.00 | 80 | 1014.2 |
| 20260503042516 | 40 | 203 | 3.5 | 5.2 | 0.00 | 0.00 | 0.00 | 79 | 1014.2 |
| 20260503041516 | 40 | 225 | 2.6 | 3.5 | 0.00 | 0.00 | 0.00 | 79 | 1014.2 |
| 20260503040516 | 40 | 225 | 2.6 | 4.3 | 0.00 | 0.00 | 0.00 | 79 | 1014.2 |
| 20260503035517 | 40 | 203 | 2.6 | 4.3 | 0.00 | 0.00 | 0.00 | 78 | 1014.2 |
| 20260503034517 | 40 | 203 | 3.5 | 5.2 | 0.00 | 0.00 | 0.00 | 78 | 1014.2 |
| 20260503033515 | 40 | 225 | 2.6 | 5.2 | 0.00 | 0.00 | 0.00 | 78 | 1014.3 |
| 20260503032556 | 40 | 180 | 2.6 | 4.3 | 0.00 | 0.00 | 0.00 | 78 | 1014.3 |
| 20260503031515 | 40 | 203 | 2.6 | 3.5 | 0.00 | 0.00 | 0.00 | 78 | 1014.4 |
| 20260503030515 | 40 | 203 | 1.7 | 2.6 | 0.00 | 0.00 | 0.00 | 78 | 1014.4 |
| 20260503025515 | 40 | 203 | 2.6 | 4.3 | 0.00 | 0.00 | 0.00 | 77 | 1014.5 |
| 20260503024515 | 40 | 203 | 2.6 | 4.3 | 0.00 | 0.00 | 0.00 | 77 | 1014.5 |
| 20260503023515 | 40 | 203 | 2.6 | 3.5 | 0.00 | 0.00 | 0.00 | 77 | 1014.7 |
| 20260503022515 | 40 | 203 | 2.6 | 4.3 | 0.00 | 0.00 | 0.00 | 77 | 1014.7 |
| 20260503021515 | 40 | 203 | 2.6 | 3.5 | 0.00 | 0.00 | 0.00 | 77 | 1014.7 |
| 20260503020515 | 40 | 203 | 0.9 | 2.6 | 0.00 | 0.00 | 0.00 | 77 | 1014.6 |
| 20260503015515 | 40 | 0.0 | 0.0 | 0.00 | 0.00 | 0.00 | 76 | 1014.5 | |
| 20260503014556 | 40 | 203 | 1.7 | 3.5 | 0.00 | 0.00 | 0.00 | 76 | 1014.6 |
| 20260503013515 | 41 | 203 | 1.7 | 3.5 | 0.00 | 0.00 | 0.00 | 76 | 1014.7 |
| 20260503012515 | 41 | 180 | 1.7 | 3.5 | 0.00 | 0.00 | 0.00 | 75 | 1014.6 |
| 20260503011556 | 41 | 180 | 0.9 | 1.7 | 0.00 | 0.00 | 0.00 | 75 | 1014.5 |
| 20260503010515 | 41 | 180 | 1.7 | 2.6 | 0.00 | 0.00 | 0.00 | 74 | 1014.5 |
| 20260503005515 | 41 | 225 | 1.7 | 3.5 | 0.00 | 0.00 | 0.00 | 74 | 1014.4 |
| 20260503004515 | 41 | 203 | 1.7 | 2.6 | 0.00 | 0.00 | 0.00 | 74 | 1014.4 |
| 20260503003515 | 41 | 203 | 1.7 | 3.5 | 0.00 | 0.00 | 0.00 | 73 | 1014.4 |
| 20260503002515 | 41 | 225 | 2.6 | 3.5 | 0.00 | 0.00 | 0.00 | 73 | 1014.5 |
| 20260503001515 | 41 | 225 | 2.6 | 4.3 | 0.00 | 0.00 | 0.00 | 73 | 1014.5 |
| 20260503000515 | 42 | 225 | 1.7 | 3.5 | 0.00 | 0.00 | 0.00 | 73 | 1014.4 |
| 20260502235515 | 42 | 225 | 1.7 | 3.5 | 0.00 | 0.00 | 0.00 | 72 | 1014.4 |
| 20260502234515 | 42 | 203 | 1.7 | 3.5 | 0.00 | 0.00 | 0.00 | 71 | 1014.4 |
| 20260502233521 | 42 | 248 | 2.6 | 3.5 | 0.00 | 0.00 | 0.00 | 69 | 1014.4 |
| 20260502233036 | 42 | 248 | 1.7 | 3.5 | 0.00 | 0.00 | 0.00 | 69 | 1014.4 |
| 20260502232056 | 42 | 293 | 1.7 | 2.6 | 0.00 | 0.00 | 0.00 | 68 | 1014.4 |
| 20260502231016 | 42 | 270 | 0.9 | 1.7 | 0.00 | 0.00 | 0.00 | 68 | 1014.3 |
| 20260502230036 | 42 | 293 | 0.9 | 1.7 | 0.00 | 0.00 | 0.00 | 67 | 1014.3 |
| 20260502225015 | 42 | 293 | 0.9 | 2.6 | 0.00 | 0.00 | 0.00 | 66 | 1014.3 |